Other Surface Observations
Issued by NWS

Home | Current Version | Previous Version | Text Only | Print | Product List | Glossary On
Versions: 1 2 3 4 5 6 7 8 9 10 11 12 13 14 15 16 17 18 19 20 21 22 23 24 25 26 27 28 29 30 31 32 33 34 35 36 37 38 39 40 41 42 43 44 45 46 47 48 49 50
000
SXUS52 KTAE 300918
OSOTAE
OSOTAE
North Florida/South Alabama/Southwest Georgia Weather Roundup
National Weather Service Tallahassee Florida
500 AM EDT SAT MAY 30 2015

Note: "fair" indicates few or no clouds below 12,000 feet with no
significant weather and/or obstructions to visibility.

!FLZ017-115-028-034-025-301000
...North Florida...

CITY           SKY/WX    TMP DP  RH WIND       PRES   REMARKS
TALLAHASSEE    CLEAR     71  65  81 E3        30.08S
APALACHICOLA   PTCLDY    81  72  74 SE10      30.05S
PERRY          CLEAR     68  66  95 CALM      30.10S
CROSS CITY       N/A     66  63  90 CALM      30.08R
JACKSONVILLE   PTCLDY    68  66  93 CALM      30.08R
$$

!FLZ112-006-005-002-011-301000
...Florida Panhandle...

CITY           SKY/WX    TMP DP  RH WIND       PRES   REMARKS
MARIANNA       LGT RAIN  70  67  90 VRB3      30.08S
BONIFAY        FAIR      68  67  96 CALM      30.09R
PANAMA CITY NW FAIR      69  67  93 N3        30.06R
TYNDALL AFB    CLEAR     71  67  86 NE5       30.06S
TYND DRONE APT FAIR      70  67  92 NE5       30.06S
DE FUNIAK SPR  FAIR      67  67  98 MISG      30.08R
EGLIN AFB      CLEAR     69  66  91 N2        30.05S
DESTIN         CLEAR     72  69  90 CALM      30.05S
HURLBURT       CLEAR     67  64  89 N2        30.04F
CRESTVIEW      CLEAR     63  62  97 CALM      30.08S
PENSACOLA      CLEAR     71  69  93 N3        30.06R
$$

!ALZ063-066-301000
...South Alabama...

CITY           SKY/WX    TMP DP  RH WIND       PRES   REMARKS
DOTHAN         CLEAR     68  66  93 CALM      30.13R
OZARK CAIRNS   PTCLDY    67  65  96 E6        30.09R
FT RUCKER HELI PTCLDY    65  63  93 E6        30.09R FOG
RUCKER HELI 3  FAIR      65  65  98 N2        30.10R FOG
RUCKER HELI 2  FAIR      66  66 100 E9        30.09R
FLORALA APT    CLEAR     65  63  93 CALM      30.09S
ANDALUSIA      CLEAR     68  64  87 CALM      30.08S
TROY           CLEAR     64  62  93 CALM      30.10R
EUFALA         FAIR      69  64  84 S5        30.09S
MOBILE         CLEAR     69  68  96 CALM      30.06F
$$

!GAZ120>161-301000
...Southwest and South Central Georgia...

CITY           SKY/WX    TMP DP  RH WIND       PRES   REMARKS
THOMASVILLE    FAIR      64  64 100 CALM      30.12R
BAINBRIDGE     CLEAR     70  68  94 E3        30.09S
MOODY AFB      CLEAR     67  65  94 MISG      30.09S
VALDOSTA       CLEAR     67  66  97 CALM      30.10S
MOULTRIE       CLEAR     68  64  88 CALM      30.12R
BLAKELY        CLEAR     66  66 100 CALM      30.10S
ALBANY         CLEAR     66  62  87 CALM      30.12S
TIFTON           N/A     68  67  95 CALM      30.11S
FITZGERALD     FAIR      69  66  92 E3        30.14R
CORDELE        FAIR      70  67  92 CALM      30.12S
AMERICUS       FAIR      68  66  94 CALM      30.13S
HOMERVILLE     FAIR      66  64  94 CALM      30.11S
$$

!GMZ750-755-770-775-301000
...Coastal and Buoy Obs...

STATION/POSITION TIME  TEMP    WIND        PRES    VSBY  WAVE
                       AIR SEA DIR/SP/G                  HT/PER
                 (UTC) (F)     (DEG/KT/KT) (MB)    (MI)  (FT/S)
KEATON BEACH     0900   69      60/  3/  5 1019.0R
CEDAR KEY        0900   74      90/ 10/ 12 1018.8R
C TOWER          0900   79     120/ 17/ 19 1017.6R
APALACHICOLA BUO 0850   80 81  130/ 17/ 19 1016.9R         2/ 3
PANAMA CITY BUOY 0850   80 81  110/  6/ 10 1017.6R         3/ 7
MOBILE BUOY      0850   78 80  120/ 10/ 12 1017.3R         3/ 6
ORANGE BCH AL BU 0850   79 80  130/  8/ 10 1016.7S         3/ 6
$$



USA.gov is the U.S. government's official web portal to all federal, state and local government web resources and services.